SCP
0 0 0 0 0 0 0 0 0 0 0 0 0 0 0 0 0 0 0 0 0 0 0 0 0 0 0 0 0 0 0 0 0 0 0 0 0 0 0 0 0 0 0 0
0 0 0 0 0 0 0 0 0 0 0 0 0 0 0 0 0 0 0 0 0 0 0 0 0 0 0 0 0 0 0 0 0 0 0 0 0 0 0 0 0 0 0 0
0 0 0 0 0 0 0 0 0 0 0 0 0 0 0 0 0 0 0 0 0 0 0 0 0 0 0 0 0 0 0 0 0 0 0 0 0 0 0 0 0 0 0 0
0 0 0 0 0 0 0 0 0 0 0 0 0 0 0 0 0 0 0 0 0 0 0 0 0 0 0 0 0 0 0 0 0 0 0 0 0 0 0 0 0 0 0 0
0 0 0 0 0 0 0 0 0 0 0 0 0 0 0 0 0 0 0 0 0 0 0 0 0 0 0 0 0 0 0 0 0 0 0 0 0 0 0 0 0 0 0 0
0 0 0 0 0 0 0 0 0 0 0 0 0 0 0 0 0 0 0 0 0 0 0 0 0 0 0 0 0 0 0 0 0 0 0 0 0 0 0 0 0 0 0 0
0 0 0 0 0 0 0 0 0 0 0 0 0 0 0 0 0 0 0 0 0 0 0 0 0 0 0 0 0 0 0 0 0 0 0 0 0 0 0 0 0 0 0 0
0 0 0 0 0 0 0 0 0 0 0 0 0 0 0 0 0 0 0 0 0 0 0 1 0 0 0 0 0 0 0 0 0 0 0 0 0 0 0 0 0 0 0 0
0 0 0 0 0 0 0 0 0 0 0 0 0 0 0 0 0 0 0 0 0 0 1 1 1 0 0 0 0 0 0 0 0 0 0 0 0 0 0 0 0 0 0 0
0 0 0 0 0 0 0 0 0 0 0 0 0 0 0 0 0 0 0 0 0 0 1 1 0 0 0 0 0 0 0 0 0 0 0 0 0 0 0 0 0 0 0 0
0 0 0 0 0 0 0 0 0 0 0 0 0 0 0 0 0 0 0 0 0 0 0 0 0 0 0 0 0 0 0 0 0 0 0 0 0 0 0 0 0 0 0 0
0 0 0 0 0 0 0 0 0 0 0 0 0 0 0 0 0 0 0 0 0 0 0 0 0 0 0 0 0 0 1 0 0 0 0 0 0 0 0 0 0 0 0 0
0 0 0 0 0 0 0 0 0 0 0 0 0 0 0 0 0 0 0 0 0 0 0 0 0 0 0 0 1 1 1 1 1 0 0 0 0 0 0 0 0 0 0 0
0 0 0 0 0 0 0 0 0 0 0 0 0 0 0 0 0 0 0 0 0 0 0 0 0 0 0 0 1 1 1 1 1 1 1 1 0 0 0 1 0 0 0 0
0 0 0 0 0 0 0 0 0 0 0 0 0 0 0 0 0 0 0 1 1 1 1 0 0 0 0 0 0 1 1 1 1 1 1 1 0 0 0 0 0 0 0 0
0 0 0 0 0 0 0 0 0 0 0 0 0 0 0 0 0 0 0 1 1 1 1 1 1 1 0 0 0 0 1 1 1 1 1 0 0 0 0 0 0 0 0 0
0 0 0 0 0 0 0 0 0 0 0 0 0 0 0 0 0 0 1 1 1 1 1 1 1 1 1 0 0 0 0 0 0 0 0 0 0 0 0 0 0 0 0 0
0 0 0 0 0 0 0 0 0 0 0 0 0 0 0 1 1 1 1 1 1 1 1 1 1 1 0 0 0 0 0 0 0 0 0 0 0 0 0 0 0 0 0 0
0 0 0 0 0 0 0 0 0 0 0 0 0 0 1 1 1 1 1 1 1 1 1 1 1 1 0 0 0 0 0 0 0 0 0 0 0 0 0 0 0 0 0 0
0 0 0 0 0 0 0 0 0 0 0 0 0 0 1 1 1 1 1 1 1 1 1 1 0 0 0 0 0 0 0 0 0 0 0 0 0 0 0 0 0 0 0 0
0 0 0 0 0 0 0 0 0 0 0 0 0 0 0 0 1 1 1 1 1 1 0 0 0 0 0 0 0 0 0 0 0 0 0 0 0 0 0 0 0 0 0 0
0 0 0 0 0 0 0 0 0 0 0 0 0 0 0 0 1 1 1 1 1 1 0 0 0 0 0 0 0 0 0 0 0 0 0 0 0 0 0 0 0 0 0 0
0 0 0 0 0 0 0 0 0 0 0 0 0 0 0 0 1 1 1 1 1 1 0 0 0 0 0 0 0 0 0 0 0 0 0 0 0 0 0 0 0 0 0 0
0 0 0 0 0 0 0 0 0 0 0 0 0 0 0 1 1 1 1 1 1 1 0 0 0 0 0 0 0 0 0 0 0 0 0 0 0 0 0 0 0 0 0 0
0 0 0 0 0 0 0 0 0 0 0 0 0 1 1 1 1 1 1 1 1 1 0 0 0 0 0 0 0 0 0 0 0 0 0 0 0 0 0 0 0 0 0 0
0 0 0 0 0 0 0 0 0 0 0 1 1 1 1 1 1 1 1 1 1 1 0 0 0 0 0 0 0 0 0 0 0 0 0 0 0 0 0 0 0 0 0 0
Wind_Speed
3 1 4 7 7 7 6 5 5 6 4 2 3 5 6 6 8 8 7 8 8 7 6 6 7 7 6 5 4 4 3 2 3 2 2 1 1 1 1 1 1 1 1 1
3 6 10 8 6 4 4 4 4 4 4 1 2 2 3 5 8 10 10 9 9 7 5 5 6 6 6 6 4 4 3 3 2 2 1 1 1 0 1 1 1 1 1 1
7 10 7 5 6 5 4 5 5 4 2 2 3 3 3 2 3 5 8 9 10 11 10 8 7 5 6 6 5 4 3 3 3 2 2 2 2 2 2 1 0 0 1 1
6 8 6 7 7 4 5 5 6 5 2 1 2 1 5 4 2 3 5 7 8 9 9 8 7 7 7 6 6 5 4 3 2 3 3 3 2 1 1 1 0 0 0 1
6 4 5 6 7 4 6 4 3 5 4 2 1 2 6 2 3 5 6 7 8 9 11 10 9 9 8 7 6 5 4 3 3 3 3 3 2 1 0 1 1 1 1 1
7 6 5 6 6 4 3 3 4 5 5 2 2 3 5 4 7 6 6 6 7 9 10 10 9 8 7 6 5 5 4 3 3 3 3 3 3 2 2 2 1 1 1 1
6 7 5 4 3 3 2 5 4 6 5 4 3 1 7 7 6 7 8 8 8 9 9 9 9 9 8 7 6 6 5 4 3 3 3 2 2 2 2 2 1 1 0 1
3 7 5 3 5 4 2 7 6 4 3 3 3 3 6 5 4 4 7 8 7 9 9 9 10 9 9 8 7 6 6 4 4 3 3 2 2 2 1 1 1 1 1 1
5 6 6 4 3 5 1 1 6 7 1 0 3 4 6 1 3 4 5 6 6 9 9 9 8 8 8 8 7 8 7 5 4 4 3 2 2 2 1 1 1 0 0 0
6 3 6 5 2 2 5 6 6 5 4 1 4 4 4 4 4 4 5 6 6 8 9 8 8 8 7 7 7 7 7 6 5 4 3 3 2 2 1 1 1 0 0 1
4 3 6 4 1 4 0 2 5 4 5 6 3 7 7 9 7 8 8 8 9 9 9 9 8 7 6 5 5 5 6 5 4 4 3 3 2 1 1 1 0 0 0 0
3 5 3 6 6 3 4 4 6 5 3 4 4 8 5 7 7 7 7 8 8 7 7 8 7 6 5 5 4 5 5 4 4 3 3 2 2 1 1 0 0 0 1 1
3 5 1 7 8 6 2 1 3 5 4 3 3 7 3 2 3 5 7 8 7 7 6 6 6 6 5 5 4 4 4 4 3 3 3 2 2 2 1 1 0 1 1 1
5 4 6 7 6 3 3 2 1 4 3 3 5 5 2 3 4 4 6 7 7 7 7 7 6 5 5 5 4 4 4 4 4 4 4 3 3 2 1 1 1 1 1 1
5 3 2 3 3 2 3 3 2 2 5 6 7 6 7 7 8 8 8 8 7 7 7 7 6 5 5 5 4 4 4 4 5 5 4 3 2 2 2 2 1 2 1 1
4 3 2 3 3 4 3 4 2 1 1 3 4 4 5 5 6 7 9 10 9 8 8 7 7 7 6 5 4 4 4 4 5 5 4 3 2 2 2 2 2 2 2 2
2 3 2 3 5 4 4 4 1 1 1 4 4 6 4 4 7 10 10 10 10 9 9 8 7 6 6 6 6 5 4 4 5 4 3 3 3 3 2 2 2 2 2 2
4 3 2 0 2 2 6 3 2 2 1 1 3 4 7 8 7 7 9 10 10 9 9 8 7 6 6 6 6 5 5 5 4 4 3 3 3 3 2 2 2 1 1 1
5 5 3 2 1 4 5 4 1 1 3 2 3 4 6 7 6 2 4 8 9 9 9 7 7 7 7 7 7 7 5 5 4 3 3 3 3 3 2 1 1 1 1 1
4 5 4 3 2 4 6 6 3 3 2 3 1 5 6 8 5 4 4 6 8 8 7 7 6 7 7 6 7 7 6 5 4 3 3 2 3 2 2 1 0 0 0 1
4 3 2 3 3 5 6 6 3 2 5 4 2 4 4 4 6 6 7 6 7 8 8 8 7 6 6 6 7 7 5 4 3 2 2 2 2 2 2 1 1 1 1 2
2 2 2 2 3 6 4 2 2 5 4 2 2 3 4 3 5 7 8 7 8 8 8 8 7 6 5 6 7 6 4 3 3 4 3 2 1 1 2 2 1 2 2 2
2 5 5 6 6 6 3 2 3 3 2 2 2 3 5 6 7 8 7 8 8 8 7 6 7 6 4 4 6 6 3 4 4 4 2 1 1 1 1 2 2 1 2 1
4 1 1 1 4 3 2 1 1 1 1 1 3 5 7 6 7 8 8 8 8 7 7 7 7 7 5 4 5 5 4 4 5 3 2 1 1 1 2 2 2 2 1 1
4 2 1 2 4 4 4 2 1 2 4 4 4 4 6 7 6 8 8 8 8 7 6 7 7 7 6 4 4 4 4 5 4 3 2 1 1 1 1 1 1 1 1 2
3 3 2 4 5 3 4 3 1 4 4 4 5 4 4 6 7 7 8 7 8 8 7 7 7 7 6 5 4 3 3 5 5 3 2 1 1 1 1 1 1 2 1 0
Wind_Direction
292 81 243 241 216 204 214 229 241 256 248 164 185 185 196 177 164 172 172 169 168 176 175 159 154 145 140 134 124 123 117 116 105 99 93 83 63 53 69 89 100 111 107 106
346 267 244 241 240 224 220 224 237 262 268 168 150 216 218 188 178 177 178 178 176 172 168 165 165 160 151 145 140 134 138 137 130 141 144 140 143 157 141 110 74 94 101 100
226 249 258 257 255 238 248 212 218 218 305 27 96 342 301 251 195 183 181 176 176 176 173 173 171 163 148 147 148 142 148 141 142 131 113 101 62 37 32 28 11 16 144 140
252 259 275 276 263 232 259 243 201 189 159 264 128 230 274 227 222 191 185 183 186 183 171 165 157 157 158 160 154 145 143 144 145 128 126 131 132 147 206 199 174 7 31 70
257 264 271 264 255 223 233 249 180 166 151 108 38 138 275 226 214 225 207 193 188 183 170 164 164 166 167 164 160 156 145 146 140 123 128 130 131 153 126 82 60 28 19 41
257 265 237 235 259 230 207 37 36 54 69 39 251 160 262 226 211 212 204 188 180 170 166 167 167 161 163 165 161 156 146 147 144 131 128 131 134 121 99 83 85 38 11 11
295 288 268 245 273 301 64 76 27 3 11 270 279 163 242 230 213 199 193 184 172 166 163 164 163 163 165 168 168 160 153 154 154 143 142 145 141 129 135 149 152 132 39 1
246 288 277 257 200 208 220 139 155 192 226 279 323 253 263 246 214 199 175 168 161 166 166 168 169 170 169 167 165 161 161 163 163 154 161 143 133 133 135 151 158 178 205 237
196 256 277 270 229 156 166 150 157 134 148 25 292 293 306 305 147 152 150 151 164 165 168 168 167 168 169 169 170 168 167 167 172 168 154 139 138 135 143 155 144 185 272 273
170 247 285 284 339 324 157 145 90 109 140 220 283 267 235 225 200 169 172 175 173 163 163 167 172 170 172 175 173 168 168 172 176 174 169 155 161 168 170 144 149 150 337 358
154 181 298 343 271 238 68 86 108 125 152 158 225 264 222 202 201 189 186 182 171 166 168 169 168 169 167 166 167 164 167 167 171 172 171 165 169 163 135 130 184 175 82 60
181 134 256 264 261 213 170 177 145 150 219 168 177 262 258 197 195 182 180 174 164 157 160 158 156 152 149 151 155 160 163 167 174 164 158 155 145 120 93 16 267 125 80 40
133 113 30 332 337 353 18 243 145 134 128 152 172 265 303 164 176 173 167 163 155 149 146 144 147 147 147 146 146 147 148 153 150 143 144 141 135 129 142 210 307 75 86 50
107 114 165 199 224 247 282 288 162 122 147 189 211 235 270 190 173 174 163 159 153 152 149 146 148 149 143 140 136 132 136 143 137 128 127 128 134 141 149 124 65 56 73 59
88 115 210 224 232 255 252 259 263 189 187 182 213 202 215 196 179 171 160 153 146 148 147 148 142 138 133 127 124 128 126 119 121 118 116 123 137 124 109 89 59 37 37 32
65 94 34 339 334 326 316 287 261 244 195 189 169 226 228 186 153 150 152 153 154 155 152 149 142 140 141 136 133 132 128 125 119 121 128 132 117 99 91 74 52 42 29 16
67 95 66 296 311 1 320 293 220 184 202 171 196 221 186 163 165 167 163 161 159 158 158 154 153 153 151 149 146 145 137 125 119 121 122 121 112 96 83 70 56 43 27 23
142 112 129 176 19 248 254 290 94 109 311 201 192 191 167 166 166 162 158 158 158 159 158 156 155 147 146 145 136 129 122 121 117 114 113 114 111 103 94 80 64 33 18 20
150 143 132 129 196 278 295 311 352 102 302 311 162 157 148 130 93 80 164 152 153 155 156 157 153 141 132 132 131 123 118 118 116 117 117 118 119 115 108 90 60 9 31 20
69 101 123 136 153 241 261 285 301 101 323 310 119 148 146 126 128 205 173 148 145 142 138 136 131 121 123 130 130 125 125 124 132 137 137 135 129 129 136 140 102 7 63 24
20 32 122 162 194 254 264 296 19 100 239 271 195 157 140 154 175 167 146 141 138 133 128 125 122 123 130 130 125 124 127 143 153 129 118 118 125 140 145 118 80 70 53 42
173 164 204 159 182 249 288 18 122 216 233 205 169 155 130 140 131 127 130 130 127 125 123 125 124 124 123 125 128 131 142 153 127 114 111 116 125 140 108 101 77 73 70 55
194 196 192 189 212 240 261 214 235 192 173 193 172 162 127 128 133 130 130 133 131 132 130 126 125 119 110 117 127 132 142 130 117 111 118 121 97 73 92 103 91 69 66 70
309 327 134 283 277 280 299 312 318 201 146 154 154 139 131 131 141 135 134 135 132 130 131 127 124 123 120 119 119 128 131 122 113 112 110 99 85 54 53 76 86 91 92 84
271 319 0 294 291 326 336 328 338 33 68 75 83 112 131 131 136 136 135 138 138 134 130 128 133 132 129 127 122 121 120 117 115 115 114 93 78 88 63 66 99 134 177 176
240 203 191 237 250 225 264 285 88 87 70 88 96 78 100 126 133 133 136 139 138 135 131 130 134 135 139 138 132 130 132 132 130 128 134 144 138 116 108 111 48 30 62 347